Location: Boulaur
(43.5408°N, 0.7752°E)
Time: 05:03:40
(UTC+00:00)

Daily predictions for brighter satellites

Satellite Brightness Start Highest point End
(mag) Time Altitude Azimuth Time Altitude Azimuth Time Altitude Azimuth
Cosmos 1697 Rocket 3.8 00:00:01 10° NNW 00:03:24 38° NNW 00:03:24 38° NNW
ATLAS 2AS CENTAUR R/B 3.0 00:09:45 60° NW 00:09:45 60° NW 00:16:22 10° NNE
Cosmos 1980 Rocket 3.1 00:20:16 10° NNW 00:24:20 46° N 00:24:20 46° N
Cosmos 2333 Rocket 4.1 00:49:02 10° N 00:53:40 25° NE 00:57:05 15° E
USA 281 4.3 00:51:27 24° ESE 00:54:41 38° NE 01:00:39 10° N
Cosmos 2082 Rocket 2.8 00:59:24 55° NNE 00:59:24 55° NNE 01:03:50 10° NNE
Cosmos 1833 Rocket 4.5 01:00:04 22° NW 01:00:19 22° NW 01:04:37 10° N
Cosmos 2322 Rocket 4.4 01:03:35 10° N 01:07:51 21° NE 01:12:06 10° E
ACS3 Solar Sail 1.8 01:12:58 10° N 01:18:33 77° N 01:18:33 77° N
CZ-4C R/B 2.9 01:22:06 40° N 01:22:06 40° N 01:25:51 10° NNE
SL-16 R/B 3.1 01:17:55 10° NNW 01:23:21 44° ENE 01:24:53 36° E
SL-4 R/B 4.5 01:31:34 17° ENE 01:31:34 17° ENE 01:32:39 10° ENE
NOSS 3-3 (C) 4.2 01:30:27 49° E 01:30:27 49° E 01:35:23 10° NE
Cosmos 2058 Rocket 4.4 01:32:04 37° N 01:32:04 37° N 01:34:48 10° N
ATLAS 3B R/B 3.5 01:23:48 10° NW 01:29:23 42° W 01:29:23 42° W
USA 267 3.8 01:27:48 10° ENE 01:34:01 44° SE 01:34:01 44° SE
Cosmos 2026 Rocket 4.4 01:29:45 10° NNW 01:35:02 52° WNW 01:35:02 52° WNW
Cosmos 909 Rocket 4.3 01:37:59 55° WNW 01:38:20 55° NW 01:44:35 10° NNE
Meteor 2-6 Rocket 4.2 01:49:06 77° ESE 01:49:13 77° E 01:55:06 10° NNE
Cosmos 1092 Rocket 4.4 01:43:37 10° NNW 01:48:43 48° WNW 01:48:43 48° WNW
IDEFIX/ARIANE 42P 2.6 01:52:33 10° N 01:57:22 73° NNW 01:57:22 73° NNW
Envisat 4.2 01:55:41 10° NNE 02:00:16 33° E 02:01:23 30° ESE
Iridium 4 Rocket 4.4 02:03:00 34° ESE 02:03:58 38° E 02:08:34 10° NNE
MOZ.5/SAFIR/RUBIN 5/SL-8 4.3 02:05:32 51° ESE 02:06:11 56° ENE 02:10:45 10° N
H-2A R/B 4.4 02:06:25 19° E 02:07:35 22° ENE 02:10:27 10° NNE
Cosmos 44 Rocket 4.3 02:08:21 37° NW 02:08:27 37° NW 02:13:15 10° NNE
Cosmos 1980 Rocket 4.5 02:05:38 10° WNW 02:06:03 11° WNW 02:06:03 11° WNW
USA 234 4.3 02:04:01 10° E 02:10:08 44° NNE 02:16:15 10° NW
Cosmos 1975 4.0 02:08:17 10° N 02:10:36 35° NNE 02:10:36 35° NNE
Cosmos 1763 Rocket 3.5 02:13:17 66° SE 02:13:43 70° ESE 02:18:59 10° NNE
ADEOS II 3.8 02:09:22 10° NE 02:13:46 27° E 02:16:28 18° SE
COSMOS 2406 3.6 02:14:30 48° WNW 02:14:56 49° WNW 02:20:32 10° NNE
ALOS 3.4 02:14:11 10° NNE 02:18:21 34° E 02:19:31 30° SE
MSX 4.0 02:13:41 10° N 02:19:16 54° WNW 02:19:47 52° W
CZ-2D R/B 3.0 02:17:28 10° NNE 02:22:29 44° E 02:24:32 30° SSE
ADEOS Rocket 3.5 02:18:08 10° NNE 02:25:46 82° WNW 02:28:49 42° SSW
Cosmos 1375 Rocket 4.5 02:31:37 51° SW 02:33:24 83° WNW 02:40:00 10° NNE
Cosmos 1354 Rocket 4.1 02:29:25 10° NNW 02:34:44 77° ENE 02:38:18 21° SSE
Cosmos 1503 Rocket 3.8 02:30:50 10° NNW 02:36:05 72° WSW 02:37:01 58° SSW
Cosmos 2360 Rocket 2.2 02:31:23 10° NNW 02:37:06 84° ENE 02:42:46 10° SSE
FENGYUN 3A 4.0 02:32:18 10° N 02:37:30 49° WNW 02:38:14 46° W
Cosmos 2333 Rocket 2.2 02:32:46 10° NNW 02:38:19 57° WSW 02:38:59 54° SW
USA 281 3.4 02:38:17 44° SW 02:39:02 46° WSW 02:45:20 10° NW
Cosmos 540 Rocket 3.4 02:41:19 59° SW 02:42:13 75° WNW 02:47:23 10° NNE
Cosmos 2082 Rocket 4.0 02:41:13 16° WNW 02:42:56 18° NW 02:46:45 10° N
Cosmos 2221 3.2 02:43:58 39° NW 02:43:58 39° NW 02:47:19 10° N
Cosmos 468 Rocket 4.1 02:46:38 40° S 02:48:32 71° ESE 02:53:48 10° NNE
NPP 4.4 02:45:40 10° N 02:50:33 36° WNW 02:51:27 34° W
Resurs 1-4 Rocket 2.0 02:45:54 10° NNE 02:51:14 87° ESE 02:53:19 38° SSW
Meteor 2-9 Rocket 4.3 02:46:25 10° NNW 02:51:30 47° W 02:52:07 45° WSW
BREEZE-M DEB (TANK) 4.2 02:50:12 22° NW 02:51:44 39° NNE 02:58:05 10° E
Cosmos 2278 3.9 02:46:25 10° NW 02:51:54 49° WSW 02:52:57 43° SW
Cosmos 2322 Rocket 2.1 02:46:47 10° NNW 02:52:24 69° WSW 02:56:37 18° S
Cosmos 1833 4.1 02:53:58 41° SSW 02:56:04 84° WNW 03:01:47 10° NNE
Cosmos 1766 Rocket 3.8 02:54:13 10° N 02:58:33 66° E 03:01:40 18° SSE
Cosmos 1271 Rocket 4.1 03:01:02 23° NW 03:01:02 23° NW 03:03:05 10° NNW
ACS3 Solar Sail 3.5 02:57:12 10° NNW 03:00:35 16° WNW 03:02:06 14° WNW
H-2A R/B 2.1 03:00:12 10° NNE 03:05:23 80° ESE 03:08:28 26° S
Cosmos 2219 Rocket 2.1 03:00:41 10° NNW 03:06:21 88° ENE 03:12:00 10° SSE
SL-4 R/B 1.6 03:05:08 30° WNW 03:06:58 84° SSW 03:10:45 10° SE
SL-16 R/B 3.1 03:02:24 10° NW 03:06:39 28° W 03:06:39 28° W
Meteor 1-11 Rocket 3.9 03:02:55 10° NNW 03:08:39 55° W 03:11:37 27° SSW
CZ-3 Stage 3 3.8 03:05:05 28° SSW 03:08:39 41° SSE 03:28:36 10° ESE
USA 290 3.0 03:10:18 36° NW 03:10:18 36° NW 03:12:58 10° N
CZ-4C R/B 4.2 03:07:34 10° NW 03:10:23 15° NNW 03:13:35 10° NNE
ARGOS 4.1 03:11:09 10° NNE 03:16:20 46° E 03:21:27 10° S
USA 267 3.5 03:10:43 10° NE 03:17:10 62° NNW 03:21:22 23° WSW
METEOR-M 4.3 03:13:40 10° NNE 03:19:00 74° ESE 03:23:22 15° S
Gbstr 26 Del rocket 2.4 03:19:26 15° WNW 03:22:27 79° SW 03:26:15 10° SE
ISS -3.8 03:29:12 40° SW 03:30:15 76° SSE 03:33:38 10° ENE
Cosmos 372 Rocket 3.8 03:25:39 10° NNW 03:30:50 80° WSW 03:35:55 10° SSE
JB-3 4.0 03:30:38 20° S 03:32:58 59° W 03:36:33 10° NNW
BREEZE-M DEB (TANK) 2.6 03:31:25 21° WSW 03:36:05 85° SSE 03:39:13 10° ENE
Cosmos 1655 Rocket 4.2 03:31:39 10° NNW 03:37:34 48° W 03:43:28 10° SSW
Meteor 2-4 Rocket 3.7 03:34:20 20° SSW 03:37:54 57° WNW 03:43:11 10° N
Cosmos 1461 2.6 03:37:00 29° SW 03:38:44 68° NW 03:42:28 10° NNE
Envisat 3.9 03:34:41 10° N 03:39:06 31° WNW 03:41:31 21° WSW
H-2A R/B 3.2 03:41:22 24° W 03:41:27 24° W 03:44:26 10° NW
Cosmos 2084 Rocket 3.8 03:38:04 10° NW 03:42:00 38° WSW 03:45:57 10° S
Cosmos 1244 Rocket 4.4 03:36:03 10° N 03:42:18 76° W 03:48:27 10° S
Aureole 1 Rocket 3.6 03:38:08 10° NW 03:42:20 45° WSW 03:47:32 10° S
Cosmos 1066 Rocket 4.0 03:38:36 13° SSW 03:43:21 73° W 03:48:42 10° N
NOSS 3-4 (A) 3.9 03:37:16 10° NW 03:44:10 69° WSW 03:52:15 10° SSE
NOSS 3-4 (C) 3.9 03:37:49 10° NW 03:44:44 70° WSW 03:52:50 10° SSE
AQUA 3.8 03:41:50 10° NNE 03:46:33 85° ESE 03:51:13 10° SSW
Cosmos 1151 Rocket 3.8 03:43:01 10° S 03:47:05 51° E 03:51:11 10° NNE
Cosmos 1842 Rocket 3.7 03:46:03 18° SSW 03:49:06 52° WNW 03:53:19 10° N
Cosmos 1238 Rocket 3.9 03:50:21 16° WNW 03:50:23 16° WNW 03:52:21 10° NNW
Cosmos 1500 Rocket 4.5 03:47:46 10° N 03:52:05 51° ENE 03:56:23 10° SSE
Nadezhda 2 Rocket 4.4 03:46:19 10° NNW 03:52:24 72° W 03:58:28 10° S
BREEZE-M DEB (TANK) 3.7 03:44:28 10° WNW 03:52:49 45° SW 03:55:51 10° SSE
USA 234 3.2 03:46:22 10° SE 03:52:53 73° SW 03:59:27 10° NW
ADEOS II 2.6 03:48:32 10° N 03:53:25 41° WNW 03:57:17 15° SW
BREEZE-M DEB (TANK) 3.4 03:50:09 10° WNW 03:53:49 73° SSW 04:06:04 10° SE
ALOS 3.4 03:51:24 10° NNW 03:55:06 25° WNW 03:57:32 16° WSW
Cosmos 2297 Rocket 3.3 03:50:18 10° S 03:55:35 43° ESE 04:00:54 10° NE
CZ-2D R/B 3.3 03:57:55 10° N 04:02:13 26° WNW 04:05:48 13° WSW
Cosmos 841 Rocket 3.7 03:58:30 14° SW 04:02:52 53° WNW 04:07:57 10° NNE
SL-16 R/B 2.5 03:57:15 10° SSE 04:03:29 77° WSW 04:09:48 10° NNW
Sich 1 2.9 03:59:45 10° NNW 04:03:51 60° W 04:07:55 10° S
Okean 3 Rocket 3.6 04:00:29 10° NNW 04:04:53 64° W 04:09:18 10° S
Cosmos 1758 3.0 04:01:52 10° N 04:05:32 89° ENE 04:09:08 10° S
COSMOS 2428 2.8 03:59:56 10° NNW 04:05:41 87° ENE 04:11:22 10° SSE
CZ-3 R/B 3.8 03:42:48 10° WSW 04:08:12 41° SSW 04:16:19 10° SE
Cosmos 1898 Rocket 3.7 04:07:14 10° NNW 04:12:08 45° WSW 04:17:01 10° S
Cosmos 1743 Rocket 4.4 04:08:48 10° N 04:13:08 55° E 04:17:23 10° SSE
Cosmos 1805 Rocket 3.5 04:09:18 10° N 04:13:42 87° W 04:18:04 10° S
Cosmos 1937 Rocket 3.5 04:11:33 10° NNW 04:16:38 57° WSW 04:21:39 10° S
DELTA 2 R/B (1) 4.2 04:13:49 11° SW 04:18:50 44° SSE 04:24:04 10° E
Cosmos 2360 Rocket 3.8 04:17:28 10° WNW 04:20:14 14° W 04:23:01 10° SW
USA 276 0.5 04:19:14 10° WNW 04:20:50 58° SSW 04:22:40 10° SE
H-2A R/B 2.2 04:18:43 10° N 04:22:36 48° WNW 04:26:23 10° SW
Meteor 2-10 Rocket 4.2 04:22:08 10° NNW 04:26:45 34° W 04:31:30 10° SSW
In-Cosmos 22 4.3 04:23:53 10° SSW 04:28:59 50° WNW 04:34:14 10° N
Resurs 1-4 Rocket 4.0 04:27:29 10° NNW 04:30:14 14° WNW 04:32:59 10° W
Cosmos 1340 Rocket 3.0 04:29:32 10° N 04:33:16 72° ENE 04:37:02 10° SSE
CZ-2C R/B 2.3 04:32:01 10° N 04:36:52 72° WNW 04:41:31 10° SSW
